Location: Anaheim
(33.8350°N, 117.9140°W)
Time: 01:47:22
(UTC-07:00)

OTV 5 (USA 277) - Visible Passes

Search period start: 20 September 2018 00:00
Search period end: 30 September 2018 00:00
Orbit: 387 x 394 km, 54.5° (Epoch: 08 September)

Date Brightness Start Highest point End Pass type
(mag) Time Alt. Az. Time Alt. Az. Time Alt. Az.
24 Sep ? 06:01:07 10° SSW 06:04:05 37° SE 06:07:04 10° ENE visible
25 Sep ? 05:06:08 10° SSE 05:07:56 14° ESE 05:09:45 10° E visible
26 Sep ? 05:44:50 16° SW 05:47:14 88° NW 05:50:26 10° NE visible
27 Sep ? 04:51:20 30° ESE 04:51:20 30° ESE 04:53:51 10° ENE visible
28 Sep ? 05:30:08 36° WNW 05:30:27 38° NW 05:33:28 10° NNE visible
29 Sep ? 04:36:21 18° NE 04:36:21 18° NE 04:37:17 10° NE visible
29 Sep ? 06:10:07 10° NW 06:10:23 10° NNW 06:10:39 10° NNW visible
